Time,TemperatureF,DewpointF,PressureIn,WindDirection,WindDirectionDegrees,WindSpeedMPH,WindSpeedGustMPH,Humidity,HourlyPrecipIn,Conditions,Clouds,dailyrainin,SoftwareType,DateUTC
2013-01-12 00:00:00,73.0,67.3,30.17,ENE,69,2.0,8.0,82,0.00,,,0.00,meteohub,2013-01-12 05:00:00,
2013-01-12 00:01:00,73.0,67.3,30.16,NNE,31,2.0,7.0,82,0.00,,,0.00,meteohub,2013-01-12 05:01:00,
2013-01-12 00:02:00,73.0,67.3,30.16,SSE,155,7.0,7.0,82,0.00,,,0.00,meteohub,2013-01-12 05:02:00,
2013-01-12 00:07:00,73.4,67.6,30.16,ENE,69,1.0,8.0,82,0.00,,,0.00,meteohub,2013-01-12 05:07:00,
2013-01-12 00:12:00,73.4,68.0,30.16,ESE,104,0.0,8.0,83,0.00,,,0.00,meteohub,2013-01-12 05:12:00,
2013-01-12 00:17:00,73.4,68.0,30.16,East,88,1.0,8.0,83,0.00,,,0.00,meteohub,2013-01-12 05:17:00,
2013-01-12 00:22:00,73.4,67.6,30.16,NE,42,0.0,7.0,82,0.00,,,0.00,meteohub,2013-01-12 05:22:00,
2013-01-12 00:27:00,73.4,67.6,30.16,East,95,1.0,7.0,82,0.00,,,0.00,meteohub,2013-01-12 05:27:00,
2013-01-12 00:32:00,73.4,67.6,30.16,SE,128,0.0,7.0,82,0.00,,,0.00,meteohub,2013-01-12 05:32:00,
2013-01-12 00:37:00,73.4,68.0,30.16,ESE,115,0.0,6.0,83,0.00,,,0.00,meteohub,2013-01-12 05:37:00,
2013-01-12 00:42:00,73.6,68.4,30.16,SE,126,1.0,6.0,84,0.00,,,0.00,meteohub,2013-01-12 05:42:00,
2013-01-12 00:47:00,73.8,68.5,30.16,SE,126,1.0,8.0,84,0.00,,,0.00,meteohub,2013-01-12 05:47:00,
2013-01-12 00:52:00,73.6,68.7,30.16,ESE,112,1.0,8.0,85,0.00,,,0.00,meteohub,2013-01-12 05:52:00,
2013-01-12 00:57:00,73.4,68.2,30.16,ESE,111,1.0,8.0,84,0.00,,,0.00,meteohub,2013-01-12 05:57:00,
2013-01-12 01:02:00,73.2,68.4,30.16,SSE,164,0.0,7.0,85,0.00,,,0.00,meteohub,2013-01-12 06:02:00,
2013-01-12 01:07:00,73.2,68.4,30.16,SE,136,0.0,6.0,85,0.00,,,0.00,meteohub,2013-01-12 06:07:00,
2013-01-12 01:12:00,73.2,68.4,30.16,East,85,0.0,5.0,85,0.00,,,0.00,meteohub,2013-01-12 06:12:00,
2013-01-12 01:17:00,73.2,68.4,30.16,ESE,123,1.0,5.0,85,0.00,,,0.00,meteohub,2013-01-12 06:17:00,
2013-01-12 01:22:00,73.6,68.7,30.16,ESE,115,0.0,7.0,85,0.00,,,0.00,meteohub,2013-01-12 06:22:00,
2013-01-12 01:27:00,73.6,68.7,30.16,ESE,111,3.0,8.0,85,0.00,,,0.00,meteohub,2013-01-12 06:27:00,
2013-01-12 01:32:00,73.8,68.4,30.16,NE,53,0.0,8.0,83,0.00,,,0.00,meteohub,2013-01-12 06:32:00,
2013-01-12 01:37:00,73.8,68.4,30.16,SE,133,3.0,8.0,83,0.00,,,0.00,meteohub,2013-01-12 06:37:00,
2013-01-12 01:42:00,73.8,68.0,30.16,South,180,3.0,7.0,82,0.00,,,0.00,meteohub,2013-01-12 06:42:00,
2013-01-12 01:47:00,73.9,68.2,30.16,ENE,63,0.0,7.0,82,0.00,,,0.00,meteohub,2013-01-12 06:47:00,
2013-01-12 01:52:00,73.8,68.4,30.16,ESE,107,1.0,7.0,83,0.00,,,0.00,meteohub,2013-01-12 06:52:00,
2013-01-12 01:57:00,73.8,68.4,30.16,ESE,107,0.0,8.0,83,0.00,,,0.00,meteohub,2013-01-12 06:57:00,
2013-01-12 02:02:00,73.8,68.4,30.15,ESE,117,2.0,8.0,83,0.00,,,0.00,meteohub,2013-01-12 07:02:00,
2013-01-12 02:07:00,73.6,68.2,30.15,East,86,2.0,8.0,83,0.00,,,0.00,meteohub,2013-01-12 07:07:00,
2013-01-12 02:12:00,73.6,67.8,30.15,ESE,113,3.0,7.0,82,0.00,,,0.00,meteohub,2013-01-12 07:12:00,
2013-01-12 02:17:00,73.6,68.4,30.15,SE,127,0.0,7.0,84,0.00,,,0.00,meteohub,2013-01-12 07:17:00,
2013-01-12 02:22:00,73.6,68.2,30.15,ENE,71,0.0,6.0,83,0.00,,,0.00,meteohub,2013-01-12 07:22:00,
2013-01-12 02:27:00,73.4,67.6,30.15,East,84,0.0,6.0,82,0.00,,,0.00,meteohub,2013-01-12 07:27:00,
2013-01-12 02:32:00,73.4,68.0,30.14,ENE,78,1.0,7.0,83,0.00,,,0.00,meteohub,2013-01-12 07:32:00,
2013-01-12 02:37:00,73.2,67.5,30.14,ENE,72,3.0,7.0,82,0.00,,,0.00,meteohub,2013-01-12 07:37:00,
2013-01-12 02:42:00,73.4,67.3,30.14,ESE,103,1.0,8.0,81,0.00,,,0.00,meteohub,2013-01-12 07:42:00,
2013-01-12 02:48:00,73.2,67.1,30.14,SE,124,0.0,8.0,81,0.00,,,0.00,meteohub,2013-01-12 07:48:00,
2013-01-12 02:53:00,73.2,66.7,30.14,SE,128,0.0,8.0,80,0.00,,,0.00,meteohub,2013-01-12 07:53:00,
2013-01-12 02:58:00,73.0,66.9,30.14,East,82,0.0,8.0,81,0.00,,,0.00,meteohub,2013-01-12 07:58:00,
2013-01-12 03:03:00,73.2,67.1,30.14,East,93,0.0,5.0,81,0.00,,,0.00,meteohub,2013-01-12 08:03:00,
2013-01-12 03:08:00,73.2,67.5,30.14,East,101,1.0,5.0,82,0.00,,,0.00,meteohub,2013-01-12 08:08:00,
2013-01-12 03:13:00,73.2,67.1,30.14,ENE,61,2.0,5.0,81,0.00,,,0.00,meteohub,2013-01-12 08:13:00,
2013-01-12 03:18:00,73.2,66.7,30.14,SE,126,0.0,6.0,80,0.00,,,0.00,meteohub,2013-01-12 08:18:00,
2013-01-12 03:23:00,73.4,66.9,30.13,NE,46,1.0,6.0,80,0.00,,,0.00,meteohub,2013-01-12 08:23:00,
2013-01-12 03:28:00,73.6,67.1,30.13,ESE,112,0.0,7.0,80,0.00,,,0.00,meteohub,2013-01-12 08:28:00,
2013-01-12 03:33:00,73.6,67.1,30.13,NE,53,0.0,7.0,80,0.00,,,0.00,meteohub,2013-01-12 08:33:00,
2013-01-12 03:38:00,73.6,67.1,30.13,ENE,67,1.0,7.0,80,0.00,,,0.00,meteohub,2013-01-12 08:38:00,
2013-01-12 03:43:00,73.2,67.1,30.13,ENE,57,0.0,7.0,81,0.00,,,0.00,meteohub,2013-01-12 08:43:00,
2013-01-12 03:48:00,73.0,67.3,30.14,ENE,78,1.0,6.0,82,0.00,,,0.00,meteohub,2013-01-12 08:48:00,
2013-01-12 03:53:00,73.0,67.6,30.14,East,82,0.0,5.0,83,0.00,,,0.00,meteohub,2013-01-12 08:53:00,
2013-01-12 03:58:00,72.9,67.8,30.13,ESE,111,0.0,3.0,84,0.00,,,0.00,meteohub,2013-01-12 08:58:00,
2013-01-12 04:03:00,72.9,67.8,30.13,ENE,67,0.0,3.0,84,0.00,,,0.00,meteohub,2013-01-12 09:03:00,
2013-01-12 04:08:00,72.7,67.6,30.13,East,89,0.0,2.0,84,0.00,,,0.00,meteohub,2013-01-12 09:08:00,
2013-01-12 04:13:00,72.5,67.5,30.13,ENE,65,0.0,5.0,84,0.00,,,0.00,meteohub,2013-01-12 09:13:00,
2013-01-12 04:18:00,72.7,67.6,30.13,East,101,2.0,6.0,84,0.00,,,0.00,meteohub,2013-01-12 09:18:00,
2013-01-12 04:23:00,72.7,67.6,30.13,ESE,105,0.0,6.0,84,0.00,,,0.00,meteohub,2013-01-12 09:23:00,
2013-01-12 04:28:00,72.7,67.3,30.13,East,89,2.0,6.0,83,0.00,,,0.00,meteohub,2013-01-12 09:28:00,
2013-01-12 04:33:00,72.9,67.5,30.13,ENE,78,2.0,5.0,83,0.00,,,0.00,meteohub,2013-01-12 09:33:00,
2013-01-12 04:38:00,72.9,67.5,30.13,East,83,0.0,8.0,83,0.00,,,0.00,meteohub,2013-01-12 09:38:00,
2013-01-12 04:42:00,72.9,67.5,30.13,East,101,0.0,8.0,83,0.00,,,0.00,meteohub,2013-01-12 09:42:00,
2013-01-12 04:47:00,72.9,67.1,30.13,East,88,1.0,8.0,82,0.00,,,0.00,meteohub,2013-01-12 09:47:00,
2013-01-12 04:52:00,72.9,67.1,30.13,East,94,0.0,5.0,82,0.00,,,0.00,meteohub,2013-01-12 09:52:00,
2013-01-12 04:57:00,72.9,66.7,30.13,SE,140,3.0,6.0,81,0.00,,,0.00,meteohub,2013-01-12 09:57:00,
2013-01-12 05:02:00,72.9,66.7,30.13,NE,40,0.0,6.0,81,0.00,,,0.00,meteohub,2013-01-12 10:02:00,
2013-01-12 05:07:00,72.9,67.1,30.13,East,88,1.0,6.0,82,0.00,,,0.00,meteohub,2013-01-12 10:07:00,
2013-01-12 05:12:00,72.7,66.6,30.13,East,90,1.0,5.0,81,0.00,,,0.00,meteohub,2013-01-12 10:12:00,
2013-01-12 05:17:00,72.7,66.9,30.13,ESE,105,0.0,7.0,82,0.00,,,0.00,meteohub,2013-01-12 10:17:00,
2013-01-12 05:22:00,72.7,66.9,30.13,SE,129,0.0,7.0,82,0.00,,,0.00,meteohub,2013-01-12 10:22:00,
2013-01-12 05:27:00,72.7,66.9,30.13,ESE,103,0.0,7.0,82,0.00,,,0.00,meteohub,2013-01-12 10:27:00,
2013-01-12 05:31:00,72.7,67.3,30.13,ESE,117,1.0,5.0,83,0.00,,,0.00,meteohub,2013-01-12 10:31:00,
2013-01-12 05:37:00,72.7,67.3,30.13,East,88,2.0,5.0,83,0.00,,,0.00,meteohub,2013-01-12 10:37:00,
2013-01-12 05:41:00,72.7,67.3,30.13,ESE,111,1.0,5.0,83,0.00,,,0.00,meteohub,2013-01-12 10:41:00,
2013-01-12 05:46:00,72.7,66.9,30.13,ESE,115,2.0,8.0,82,0.00,,,0.00,meteohub,2013-01-12 10:46:00,
2013-01-12 05:52:00,72.7,66.6,30.13,ESE,121,0.0,8.0,81,0.00,,,0.00,meteohub,2013-01-12 10:52:00,
2013-01-12 05:57:00,72.9,66.7,30.14,SE,138,4.0,8.0,81,0.00,,,0.00,meteohub,2013-01-12 10:57:00,
2013-01-12 06:02:00,73.0,66.9,30.13,East,99,2.0,6.0,81,0.00,,,0.00,meteohub,2013-01-12 11:02:00,
2013-01-12 06:07:00,73.2,67.5,30.13,East,84,1.0,5.0,82,0.00,,,0.00,meteohub,2013-01-12 11:07:00,
2013-01-12 06:12:00,73.0,67.3,30.14,ESE,103,0.0,5.0,82,0.00,,,0.00,meteohub,2013-01-12 11:12:00,
2013-01-12 06:17:00,73.0,67.3,30.14,ESE,119,0.0,5.0,82,0.00,,,0.00,meteohub,2013-01-12 11:17:00,
2013-01-12 06:22:00,73.0,67.3,30.14,ENE,74,2.0,4.0,82,0.00,,,0.00,meteohub,2013-01-12 11:22:00,
2013-01-12 06:27:00,72.9,66.7,30.14,East,92,0.0,5.0,81,0.00,,,0.00,meteohub,2013-01-12 11:27:00,
2013-01-12 06:32:00,72.9,66.4,30.15,ENE,71,1.0,5.0,80,0.00,,,0.00,meteohub,2013-01-12 11:32:00,
2013-01-12 06:37:00,72.9,66.7,30.15,ESE,108,1.0,6.0,81,0.00,,,0.00,meteohub,2013-01-12 11:37:00,
2013-01-12 06:42:00,73.0,66.9,30.15,ESE,123,2.0,6.0,81,0.00,,,0.00,meteohub,2013-01-12 11:42:00,
2013-01-12 06:47:00,73.0,66.9,30.15,SE,140,1.0,6.0,81,0.00,,,0.00,meteohub,2013-01-12 11:47:00,
2013-01-12 06:52:00,73.0,66.6,30.15,East,91,2.0,7.0,80,0.00,,,0.00,meteohub,2013-01-12 11:52:00,
2013-01-12 06:57:00,73.0,66.6,30.15,East,92,0.0,7.0,80,0.00,,,0.00,meteohub,2013-01-12 11:57:00,
2013-01-12 07:02:00,73.0,66.9,30.15,ESE,108,0.0,7.0,81,0.00,,,0.00,meteohub,2013-01-12 12:02:00,
2013-01-12 07:07:00,73.0,66.6,30.16,East,88,0.0,7.0,80,0.00,,,0.00,meteohub,2013-01-12 12:07:00,
2013-01-12 07:12:00,73.0,66.9,30.15,SE,146,0.0,5.0,81,0.00,,,0.00,meteohub,2013-01-12 12:12:00,
2013-01-12 07:17:00,72.9,66.7,30.15,ESE,117,2.0,6.0,81,0.00,,,0.00,meteohub,2013-01-12 12:17:00,
2013-01-12 07:22:00,73.0,67.3,30.16,NE,44,0.0,6.0,82,0.00,,,0.00,meteohub,2013-01-12 12:22:00,
2013-01-12 07:27:00,73.2,67.5,30.16,NE,53,0.0,6.0,82,0.00,,,0.00,meteohub,2013-01-12 12:27:00,
2013-01-12 07:32:00,73.6,67.5,30.16,East,79,5.0,6.0,81,0.00,,,0.00,meteohub,2013-01-12 12:32:00,
2013-01-12 07:37:00,73.9,67.5,30.16,East,92,1.0,6.0,80,0.00,,,0.00,meteohub,2013-01-12 12:37:00,
2013-01-12 07:42:00,74.1,67.6,30.16,East,80,2.0,5.0,80,0.00,,,0.00,meteohub,2013-01-12 12:42:00,
2013-01-12 07:47:00,74.1,67.1,30.17,ESE,109,0.0,5.0,79,0.00,,,0.00,meteohub,2013-01-12 12:47:00,
2013-01-12 07:52:00,74.5,67.5,30.17,ESE,119,0.0,5.0,79,0.00,,,0.00,meteohub,2013-01-12 12:52:00,
2013-01-12 07:57:00,74.5,67.8,30.16,SSE,164,6.0,7.0,80,0.00,,,0.00,meteohub,2013-01-12 12:57:00,
2013-01-12 08:02:00,74.5,67.5,30.17,East,97,0.0,7.0,79,0.00,,,0.00,meteohub,2013-01-12 13:02:00,
2013-01-12 08:07:00,74.5,67.5,30.17,East,86,2.0,7.0,79,0.00,,,0.00,meteohub,2013-01-12 13:07:00,
2013-01-12 08:12:00,74.3,66.9,30.17,SE,138,0.0,6.0,78,0.00,,,0.00,meteohub,2013-01-12 13:12:00,
2013-01-12 08:17:00,74.5,67.8,30.17,East,88,1.0,5.0,80,0.00,,,0.00,meteohub,2013-01-12 13:17:00,
2013-01-12 08:22:00,74.5,67.8,30.17,East,92,1.0,5.0,80,0.00,,,0.00,meteohub,2013-01-12 13:22:00,
2013-01-12 08:27:00,74.7,67.6,30.17,East,94,0.0,5.0,79,0.00,,,0.00,meteohub,2013-01-12 13:27:00,
2013-01-12 08:32:00,74.8,67.8,30.17,ENE,57,0.0,5.0,79,0.00,,,0.00,meteohub,2013-01-12 13:32:00,
2013-01-12 08:37:00,75.2,67.8,30.17,NE,34,1.0,6.0,78,0.00,,,0.00,meteohub,2013-01-12 13:37:00,
2013-01-12 08:42:00,75.7,67.6,30.17,SE,134,0.0,8.0,76,0.00,,,0.00,meteohub,2013-01-12 13:42:00,
2013-01-12 08:47:00,76.3,67.8,30.17,East,98,0.0,8.0,75,0.00,,,0.00,meteohub,2013-01-12 13:47:00,
2013-01-12 08:52:00,76.8,68.4,30.17,ESE,109,1.0,8.0,75,0.00,,,0.00,meteohub,2013-01-12 13:52:00,
2013-01-12 08:57:00,77.2,68.2,30.17,East,94,0.0,5.0,74,0.00,,,0.00,meteohub,2013-01-12 13:57:00,
2013-01-12 09:02:00,77.2,68.2,30.17,ESE,123,0.0,6.0,74,0.00,,,0.00,meteohub,2013-01-12 14:02:00,
2013-01-12 09:07:00,77.4,67.6,30.17,ENE,69,0.0,6.0,72,0.00,,,0.00,meteohub,2013-01-12 14:07:00,
2013-01-12 09:12:00,77.5,67.8,30.18,East,99,3.0,6.0,72,0.00,,,0.00,meteohub,2013-01-12 14:12:00,
2013-01-12 09:17:00,77.5,68.2,30.18,SSE,149,0.0,6.0,73,0.00,,,0.00,meteohub,2013-01-12 14:17:00,
2013-01-12 09:22:00,77.4,68.0,30.18,East,89,2.0,6.0,73,0.00,,,0.00,meteohub,2013-01-12 14:22:00,
2013-01-12 09:27:00,76.8,67.1,30.18,SSE,159,2.0,6.0,72,0.00,,,0.00,meteohub,2013-01-12 14:27:00,
2013-01-12 09:32:00,76.6,67.3,30.19,ENE,76,0.0,6.0,73,0.00,,,0.00,meteohub,2013-01-12 14:32:00,
2013-01-12 09:37:00,77.2,68.2,30.19,ENE,77,0.0,6.0,74,0.00,,,0.00,meteohub,2013-01-12 14:37:00,
2013-01-12 09:42:00,77.7,67.6,30.18,SE,142,0.0,7.0,71,0.00,,,0.00,meteohub,2013-01-12 14:42:00,
2013-01-12 09:47:00,78.4,68.2,30.18,SE,139,0.0,7.0,71,0.00,,,0.00,meteohub,2013-01-12 14:47:00,
2013-01-12 09:52:00,79.0,68.4,30.19,ENE,74,0.0,7.0,70,0.00,,,0.00,meteohub,2013-01-12 14:52:00,
2013-01-12 09:57:00,79.0,68.4,30.18,SSE,159,3.0,7.0,70,0.00,,,0.00,meteohub,2013-01-12 14:57:00,
2013-01-12 10:02:00,79.2,68.5,30.19,South,184,5.0,7.0,70,0.00,,,0.00,meteohub,2013-01-12 15:02:00,
2013-01-12 10:07:00,79.2,68.5,30.19,East,98,0.0,7.0,70,0.00,,,0.00,meteohub,2013-01-12 15:07:00,
2013-01-12 10:12:00,79.3,68.7,30.18,SSE,154,1.0,8.0,70,0.00,,,0.00,meteohub,2013-01-12 15:12:00,
2013-01-12 10:17:00,79.5,68.5,30.19,East,80,1.0,8.0,69,0.00,,,0.00,meteohub,2013-01-12 15:17:00,
2013-01-12 10:22:00,79.9,68.4,30.18,SSE,151,4.0,8.0,68,0.00,,,0.00,meteohub,2013-01-12 15:22:00,
2013-01-12 10:27:00,79.7,68.2,30.18,East,88,2.0,7.0,68,0.00,,,0.00,meteohub,2013-01-12 15:27:00,
2013-01-12 10:32:00,79.3,67.8,30.18,East,84,0.0,7.0,68,0.00,,,0.00,meteohub,2013-01-12 15:32:00,
2013-01-12 10:37:00,79.7,69.1,30.18,ENE,74,0.0,7.0,70,0.00,,,0.00,meteohub,2013-01-12 15:37:00,
2013-01-12 10:42:00,79.3,68.4,30.18,SE,140,1.0,7.0,69,0.00,,,0.00,meteohub,2013-01-12 15:42:00,
2013-01-12 10:47:00,78.8,68.2,30.18,SSW,211,1.0,6.0,70,0.00,,,0.00,meteohub,2013-01-12 15:47:00,
2013-01-12 10:52:00,78.6,68.0,30.17,ESE,109,0.0,6.0,70,0.00,,,0.00,meteohub,2013-01-12 15:52:00,
2013-01-12 10:57:00,78.6,68.0,30.17,NE,51,1.0,7.0,70,0.00,,,0.00,meteohub,2013-01-12 15:57:00,
2013-01-12 11:02:00,79.0,68.7,30.17,ESE,103,1.0,7.0,71,0.00,,,0.00,meteohub,2013-01-12 16:02:00,
2013-01-12 11:07:00,79.5,68.5,30.17,SE,142,4.0,7.0,69,0.00,,,0.00,meteohub,2013-01-12 16:07:00,
2013-01-12 11:12:00,79.5,68.0,30.17,SSE,164,2.0,7.0,68,0.00,,,0.00,meteohub,2013-01-12 16:12:00,
2013-01-12 11:17:00,79.5,68.0,30.17,ENE,77,1.0,7.0,68,0.00,,,0.00,meteohub,2013-01-12 16:17:00,
2013-01-12 11:22:00,79.3,68.4,30.17,NNE,17,2.0,7.0,69,0.00,,,0.00,meteohub,2013-01-12 16:22:00,
2013-01-12 11:27:00,79.3,68.7,30.16,East,87,2.0,7.0,70,0.00,,,0.00,meteohub,2013-01-12 16:27:00,
2013-01-12 11:32:00,79.5,68.5,30.16,SSE,163,4.0,7.0,69,0.00,,,0.00,meteohub,2013-01-12 16:32:00,
2013-01-12 11:37:00,79.5,68.9,30.16,East,80,0.0,7.0,70,0.00,,,0.00,meteohub,2013-01-12 16:37:00,
2013-01-12 11:42:00,79.3,68.4,30.16,ESE,121,1.0,7.0,69,0.00,,,0.00,meteohub,2013-01-12 16:42:00,
2013-01-12 11:47:00,79.9,68.4,30.15,East,84,2.0,7.0,68,0.00,,,0.00,meteohub,2013-01-12 16:47:00,
2013-01-12 11:52:00,79.5,68.0,30.15,SE,126,3.0,7.0,68,0.00,,,0.00,meteohub,2013-01-12 16:52:00,
2013-01-12 11:57:00,79.0,68.0,30.15,East,94,0.0,7.0,69,0.00,,,0.00,meteohub,2013-01-12 16:57:00,
2013-01-12 12:02:00,78.4,67.8,30.15,SE,140,0.0,7.0,70,0.00,,,0.00,meteohub,2013-01-12 17:02:00,
2013-01-12 12:07:00,78.4,68.2,30.14,East,91,2.0,6.0,71,0.00,,,0.00,meteohub,2013-01-12 17:07:00,
2013-01-12 12:12:00,78.6,68.0,30.14,East,82,3.0,6.0,70,0.00,,,0.00,meteohub,2013-01-12 17:12:00,
2013-01-12 12:17:00,79.0,68.7,30.14,SE,126,0.0,7.0,71,0.00,,,0.00,meteohub,2013-01-12 17:17:00,
2013-01-12 12:22:00,79.2,67.6,30.13,ESE,121,1.0,7.0,68,0.00,,,0.00,meteohub,2013-01-12 17:22:00,
2013-01-12 12:27:00,79.3,68.7,30.13,ESE,120,2.0,7.0,70,0.00,,,0.00,meteohub,2013-01-12 17:27:00,
2013-01-12 12:32:00,79.5,68.5,30.13,NE,46,0.0,7.0,69,0.00,,,0.00,meteohub,2013-01-12 17:32:00,
2013-01-12 12:37:00,79.9,67.5,30.13,ESE,118,3.0,6.0,66,0.00,,,0.00,meteohub,2013-01-12 17:37:00,
2013-01-12 12:42:00,79.9,68.7,30.13,ENE,72,0.0,6.0,69,0.00,,,0.00,meteohub,2013-01-12 17:42:00,
2013-01-12 12:47:00,79.7,68.5,30.13,SE,127,2.0,6.0,69,0.00,,,0.00,meteohub,2013-01-12 17:47:00,
2013-01-12 12:52:00,79.5,68.5,30.13,East,84,5.0,8.0,69,0.00,,,0.00,meteohub,2013-01-12 17:52:00,
2013-01-12 12:57:00,79.9,68.7,30.13,ESE,115,0.0,8.0,69,0.00,,,0.00,meteohub,2013-01-12 17:57:00,
2013-01-12 13:02:00,80.4,68.9,30.13,ESE,106,2.0,8.0,68,0.00,,,0.00,meteohub,2013-01-12 18:02:00,
2013-01-12 13:07:00,80.2,68.4,30.12,ESE,119,0.0,6.0,67,0.00,,,0.00,meteohub,2013-01-12 18:07:00,
2013-01-12 13:12:00,80.4,68.9,30.12,SE,140,4.0,6.0,68,0.00,,,0.00,meteohub,2013-01-12 18:12:00,
2013-01-12 13:17:00,80.6,68.2,30.12,East,82,2.0,6.0,66,0.00,,,0.00,meteohub,2013-01-12 18:17:00,
2013-01-12 13:22:00,81.0,68.9,30.12,SE,140,0.0,5.0,67,0.00,,,0.00,meteohub,2013-01-12 18:22:00,
2013-01-12 13:27:00,80.8,68.4,30.12,SSE,153,2.0,7.0,66,0.00,,,0.00,meteohub,2013-01-12 18:27:00,
2013-01-12 13:32:00,80.4,68.9,30.12,NW,323,2.0,7.0,68,0.00,,,0.00,meteohub,2013-01-12 18:32:00,
2013-01-12 13:37:00,80.2,67.8,30.12,East,99,2.0,8.0,66,0.00,,,0.00,meteohub,2013-01-12 18:37:00,
2013-01-12 13:42:00,80.2,68.7,30.12,East,80,0.0,8.0,68,0.00,,,0.00,meteohub,2013-01-12 18:42:00,
2013-01-12 13:47:00,80.2,68.4,30.11,East,85,1.0,8.0,67,0.00,,,0.00,meteohub,2013-01-12 18:47:00,
2013-01-12 13:52:00,80.1,68.5,30.11,NE,38,1.0,7.0,68,0.00,,,0.00,meteohub,2013-01-12 18:52:00,
2013-01-12 13:57:00,80.4,68.5,30.11,SE,129,4.0,7.0,67,0.00,,,0.00,meteohub,2013-01-12 18:57:00,
2013-01-12 14:02:00,80.2,68.7,30.11,SE,138,9.0,9.0,68,0.00,,,0.00,meteohub,2013-01-12 19:02:00,
2013-01-12 14:07:00,79.7,67.8,30.11,SE,127,6.0,9.0,67,0.00,,,0.00,meteohub,2013-01-12 19:07:00,
2013-01-12 14:12:00,79.9,68.0,30.11,ESE,111,2.0,9.0,67,0.00,,,0.00,meteohub,2013-01-12 19:12:00,
2013-01-12 14:17:00,79.9,68.0,30.11,ESE,108,0.0,9.0,67,0.00,,,0.00,meteohub,2013-01-12 19:17:00,
2013-01-12 14:22:00,80.2,68.7,30.10,East,91,1.0,7.0,68,0.00,,,0.00,meteohub,2013-01-12 19:22:00,
2013-01-12 14:27:00,80.1,67.6,30.10,East,101,0.0,6.0,66,0.00,,,0.00,meteohub,2013-01-12 19:27:00,
2013-01-12 14:32:00,80.2,68.4,30.10,ESE,120,1.0,5.0,67,0.00,,,0.00,meteohub,2013-01-12 19:32:00,
2013-01-12 14:37:00,80.2,67.8,30.10,SSE,154,3.0,6.0,66,0.00,,,0.00,meteohub,2013-01-12 19:37:00,
2013-01-12 14:42:00,80.1,68.2,30.10,ESE,102,0.0,6.0,67,0.00,,,0.00,meteohub,2013-01-12 19:42:00,
2013-01-12 14:47:00,80.2,68.7,30.10,ESE,109,1.0,6.0,68,0.00,,,0.00,meteohub,2013-01-12 19:47:00,
2013-01-12 14:52:00,80.4,67.6,30.10,ESE,109,0.0,6.0,65,0.00,,,0.00,meteohub,2013-01-12 19:52:00,
2013-01-12 14:57:00,80.2,67.8,30.10,SE,138,1.0,8.0,66,0.00,,,0.00,meteohub,2013-01-12 19:57:00,
2013-01-12 15:02:00,80.4,68.0,30.10,NNE,32,1.0,8.0,66,0.00,,,0.00,meteohub,2013-01-12 20:02:00,
2013-01-12 15:07:00,80.6,68.2,30.10,East,90,0.0,8.0,66,0.00,,,0.00,meteohub,2013-01-12 20:07:00,
2013-01-12 15:12:00,80.2,67.8,30.10,SSW,203,4.0,5.0,66,0.00,,,0.00,meteohub,2013-01-12 20:12:00,
2013-01-12 15:17:00,80.1,68.5,30.10,East,91,0.0,5.0,68,0.00,,,0.00,meteohub,2013-01-12 20:17:00,
2013-01-12 15:22:00,80.2,68.4,30.10,WNW,288,1.0,6.0,67,0.00,,,0.00,meteohub,2013-01-12 20:22:00,
2013-01-12 15:27:00,80.1,68.2,30.10,SE,142,2.0,6.0,67,0.00,,,0.00,meteohub,2013-01-12 20:27:00,
2013-01-12 15:32:00,79.7,67.8,30.10,South,175,3.0,6.0,67,0.00,,,0.00,meteohub,2013-01-12 20:32:00,
2013-01-12 15:37:00,79.0,67.1,30.10,NNE,27,0.0,6.0,67,0.00,,,0.00,meteohub,2013-01-12 20:37:00,
2013-01-12 15:42:00,79.2,67.6,30.10,East,94,0.0,6.0,68,0.00,,,0.00,meteohub,2013-01-12 20:42:00,
2013-01-12 15:47:00,79.2,67.6,30.10,ENE,74,1.0,6.0,68,0.00,,,0.00,meteohub,2013-01-12 20:47:00,
2013-01-12 15:52:00,78.8,67.8,30.10,SE,130,0.0,7.0,69,0.00,,,0.00,meteohub,2013-01-12 20:52:00,
2013-01-12 15:57:00,78.6,67.6,30.10,SE,134,1.0,7.0,69,0.00,,,0.00,meteohub,2013-01-12 20:57:00,
2013-01-12 16:02:00,78.6,67.6,30.10,ENE,74,0.0,7.0,69,0.00,,,0.00,meteohub,2013-01-12 21:02:00,
2013-01-12 16:07:00,78.6,68.0,30.11,ESE,123,0.0,7.0,70,0.00,,,0.00,meteohub,2013-01-12 21:07:00,
2013-01-12 16:12:00,78.4,68.2,30.11,ESE,113,2.0,6.0,71,0.00,,,0.00,meteohub,2013-01-12 21:12:00,
2013-01-12 16:17:00,78.4,67.8,30.11,ESE,107,0.0,5.0,70,0.00,,,0.00,meteohub,2013-01-12 21:17:00,
2013-01-12 16:22:00,78.4,67.8,30.10,East,87,2.0,5.0,70,0.00,,,0.00,meteohub,2013-01-12 21:22:00,
2013-01-12 16:27:00,78.4,67.5,30.11,SSE,155,0.0,5.0,69,0.00,,,0.00,meteohub,2013-01-12 21:27:00,
2013-01-12 16:32:00,77.9,67.3,30.11,ENE,74,0.0,4.0,70,0.00,,,0.00,meteohub,2013-01-12 21:32:00,
2013-01-12 16:37:00,77.7,67.6,30.11,SE,134,0.0,4.0,71,0.00,,,0.00,meteohub,2013-01-12 21:37:00,
2013-01-12 16:42:00,77.5,66.9,30.11,East,88,0.0,4.0,70,0.00,,,0.00,meteohub,2013-01-12 21:42:00,
2013-01-12 16:47:00,77.2,67.5,30.11,NNE,31,0.0,4.0,72,0.00,,,0.00,meteohub,2013-01-12 21:47:00,
2013-01-12 16:52:00,76.8,67.8,30.11,East,96,0.0,4.0,74,0.00,,,0.00,meteohub,2013-01-12 21:52:00,
2013-01-12 16:57:00,76.5,67.6,30.11,SE,132,1.0,2.0,74,0.00,,,0.00,meteohub,2013-01-12 21:57:00,
2013-01-12 17:02:00,76.3,66.9,30.11,ESE,102,0.0,4.0,73,0.00,,,0.00,meteohub,2013-01-12 22:02:00,
2013-01-12 17:07:00,75.9,67.1,30.11,SE,142,0.0,4.0,74,0.00,,,0.00,meteohub,2013-01-12 22:07:00,
2013-01-12 17:12:00,75.7,66.9,30.11,ENE,71,0.0,4.0,74,0.00,,,0.00,meteohub,2013-01-12 22:12:00,
2013-01-12 17:17:00,75.7,66.9,30.11,SSE,161,0.0,3.0,74,0.00,,,0.00,meteohub,2013-01-12 22:17:00,
2013-01-12 17:22:00,75.6,66.7,30.11,NW,323,0.0,3.0,74,0.00,,,0.00,meteohub,2013-01-12 22:22:00,
2013-01-12 17:27:00,75.4,66.6,30.11,SE,136,0.0,8.0,74,0.00,,,0.00,meteohub,2013-01-12 22:27:00,
2013-01-12 17:32:00,75.2,66.7,30.11,ESE,110,0.0,8.0,75,0.00,,,0.00,meteohub,2013-01-12 22:32:00,
2013-01-12 17:37:00,75.0,66.6,30.11,SSE,165,1.0,8.0,75,0.00,,,0.00,meteohub,2013-01-12 22:37:00,
2013-01-12 17:43:00,74.8,66.4,30.12,SE,131,1.0,2.0,75,0.00,,,0.00,meteohub,2013-01-12 22:43:00,
2013-01-12 17:48:00,74.8,66.4,30.12,ESE,112,0.0,4.0,75,0.00,,,0.00,meteohub,2013-01-12 22:48:00,
2013-01-12 17:53:00,74.7,66.6,30.12,SE,146,0.0,4.0,76,0.00,,,0.00,meteohub,2013-01-12 22:53:00,
2013-01-12 17:58:00,74.7,66.6,30.12,ESE,102,0.0,4.0,76,0.00,,,0.00,meteohub,2013-01-12 22:58:00,
2013-01-12 18:03:00,74.5,66.4,30.12,SSE,150,0.0,4.0,76,0.00,,,0.00,meteohub,2013-01-12 23:03:00,
2013-01-12 18:08:00,74.5,66.4,30.12,South,178,0.0,5.0,76,0.00,,,0.00,meteohub,2013-01-12 23:08:00,
2013-01-12 18:13:00,74.3,66.6,30.12,East,87,0.0,5.0,77,0.00,,,0.00,meteohub,2013-01-12 23:13:00,
2013-01-12 18:18:00,74.1,66.4,30.12,South,191,0.0,5.0,77,0.00,,,0.00,meteohub,2013-01-12 23:18:00,
2013-01-12 18:23:00,74.1,66.4,30.12,ESE,115,0.0,1.0,77,0.00,,,0.00,meteohub,2013-01-12 23:23:00,
2013-01-12 18:28:00,74.1,66.4,30.12,NE,56,0.0,3.0,77,0.00,,,0.00,meteohub,2013-01-12 23:28:00,
2013-01-12 18:33:00,73.9,66.2,30.12,ESE,123,0.0,4.0,77,0.00,,,0.00,meteohub,2013-01-12 23:33:00,
2013-01-12 18:38:00,73.9,66.2,30.12,East,92,0.0,4.0,77,0.00,,,0.00,meteohub,2013-01-12 23:38:00,
2013-01-12 18:44:00,73.9,65.8,30.12,SW,224,0.0,4.0,76,0.00,,,0.00,meteohub,2013-01-12 23:44:00,
2013-01-12 18:49:00,73.8,66.0,30.12,ESE,103,0.0,3.0,77,0.00,,,0.00,meteohub,2013-01-12 23:49:00,
2013-01-12 18:54:00,73.8,66.0,30.12,SE,124,0.0,3.0,77,0.00,,,0.00,meteohub,2013-01-12 23:54:00,
2013-01-12 18:59:00,73.8,66.4,30.13,ESE,116,0.0,3.0,78,0.00,,,0.00,meteohub,2013-01-12 23:59:00,
2013-01-12 19:04:00,73.6,65.8,30.13,ENE,67,0.0,2.0,77,0.00,,,0.00,meteohub,2013-01-13 00:04:00,
2013-01-12 19:09:00,73.6,65.8,30.13,East,98,0.0,2.0,77,0.00,,,0.00,meteohub,2013-01-13 00:09:00,
2013-01-12 19:14:00,73.6,66.4,30.13,ENE,69,0.0,2.0,78,0.00,,,0.00,meteohub,2013-01-13 00:14:00,
2013-01-12 19:19:00,73.6,66.7,30.13,NNE,31,0.0,2.0,79,0.00,,,0.00,meteohub,2013-01-13 00:19:00,
2013-01-12 19:24:00,73.6,66.7,30.13,ENE,78,0.0,2.0,79,0.00,,,0.00,meteohub,2013-01-13 00:24:00,
2013-01-12 19:29:00,73.4,66.2,30.13,ENE,78,0.0,1.0,78,0.00,,,0.00,meteohub,2013-01-13 00:29:00,
2013-01-12 19:34:00,73.2,65.7,30.13,ENE,78,0.0,1.0,77,0.00,,,0.00,meteohub,2013-01-13 00:34:00,
2013-01-12 19:39:00,73.0,65.5,30.13,East,100,0.0,1.0,77,0.00,,,0.00,meteohub,2013-01-13 00:39:00,
2013-01-12 19:44:00,73.0,65.5,30.13,ENE,69,0.0,1.0,77,0.00,,,0.00,meteohub,2013-01-13 00:44:00,
2013-01-12 19:49:00,72.9,65.7,30.13,East,90,0.0,1.0,78,0.00,,,0.00,meteohub,2013-01-13 00:49:00,
2013-01-12 19:54:00,72.9,65.7,30.13,East,90,0.0,2.0,78,0.00,,,0.00,meteohub,2013-01-13 00:54:00,
2013-01-12 19:59:00,72.7,65.5,30.13,East,90,0.0,2.0,78,0.00,,,0.00,meteohub,2013-01-13 00:59:00,
2013-01-12 20:04:00,72.5,65.3,30.13,East,90,0.0,2.0,78,0.00,,,0.00,meteohub,2013-01-13 01:04:00,
2013-01-12 20:09:00,72.3,65.5,30.14,East,90,0.0,1.0,79,0.00,,,0.00,meteohub,2013-01-13 01:09:00,
2013-01-12 20:14:00,72.1,65.7,30.14,East,81,0.0,0.0,80,0.00,,,0.00,meteohub,2013-01-13 01:14:00,
2013-01-12 20:19:00,72.1,65.7,30.14,East,86,0.0,1.0,80,0.00,,,0.00,meteohub,2013-01-13 01:19:00,
2013-01-12 20:24:00,72.0,65.5,30.13,ENE,76,0.0,1.0,80,0.00,,,0.00,meteohub,2013-01-13 01:24:00,
2013-01-12 20:29:00,72.0,65.5,30.13,ENE,76,0.0,1.0,80,0.00,,,0.00,meteohub,2013-01-13 01:29:00,
2013-01-12 20:35:00,72.0,65.5,30.13,ENE,76,0.0,1.0,80,0.00,,,0.00,meteohub,2013-01-13 01:35:00,
2013-01-12 20:40:00,71.8,65.3,30.14,ENE,76,0.0,1.0,80,0.00,,,0.00,meteohub,2013-01-13 01:40:00,
2013-01-12 20:45:00,71.8,65.7,30.14,ENE,76,0.0,1.0,81,0.00,,,0.00,meteohub,2013-01-13 01:45:00,
2013-01-12 20:50:00,71.6,65.1,30.13,ENE,76,0.0,1.0,80,0.00,,,0.00,meteohub,2013-01-13 01:50:00,
2013-01-12 20:55:00,71.4,65.3,30.13,ENE,76,0.0,1.0,81,0.00,,,0.00,meteohub,2013-01-13 01:55:00,
2013-01-12 21:00:00,71.2,65.5,30.13,ENE,76,0.0,1.0,82,0.00,,,0.00,meteohub,2013-01-13 02:00:00,
2013-01-12 21:05:00,71.2,65.5,30.13,East,80,0.0,1.0,82,0.00,,,0.00,meteohub,2013-01-13 02:05:00,
2013-01-12 21:10:00,71.2,65.5,30.13,East,80,0.0,1.0,82,0.00,,,0.00,meteohub,2013-01-13 02:10:00,
2013-01-12 21:15:00,71.1,65.7,30.13,East,80,0.0,1.0,83,0.00,,,0.00,meteohub,2013-01-13 02:15:00,
2013-01-12 21:20:00,71.1,65.7,30.13,East,80,0.0,0.0,83,0.00,,,0.00,meteohub,2013-01-13 02:20:00,
2013-01-12 21:25:00,71.1,65.7,30.13,East,80,0.0,0.0,83,0.00,,,0.00,meteohub,2013-01-13 02:25:00,
2013-01-12 21:30:00,71.1,65.7,30.13,East,80,0.0,0.0,83,0.00,,,0.00,meteohub,2013-01-13 02:30:00,
2013-01-12 21:35:00,71.2,65.5,30.13,East,80,0.0,1.0,82,0.00,,,0.00,meteohub,2013-01-13 02:35:00,
2013-01-12 21:40:00,71.2,65.5,30.13,East,80,0.0,1.0,82,0.00,,,0.00,meteohub,2013-01-13 02:40:00,
2013-01-12 21:45:00,71.4,65.3,30.12,East,85,0.0,1.0,81,0.00,,,0.00,meteohub,2013-01-13 02:45:00,
2013-01-12 21:50:00,71.6,65.5,30.12,East,86,0.0,1.0,81,0.00,,,0.00,meteohub,2013-01-13 02:50:00,
2013-01-12 21:55:00,71.8,65.7,30.12,East,86,0.0,1.0,81,0.00,,,0.00,meteohub,2013-01-13 02:55:00,
2013-01-12 22:00:00,72.0,65.5,30.12,East,86,0.0,1.0,80,0.00,,,0.00,meteohub,2013-01-13 03:00:00,
2013-01-12 22:05:00,72.1,66.0,30.12,ENE,78,0.0,1.0,81,0.00,,,0.00,meteohub,2013-01-13 03:05:00,
2013-01-12 22:10:00,72.1,65.7,30.12,ENE,78,0.0,1.0,80,0.00,,,0.00,meteohub,2013-01-13 03:10:00,
2013-01-12 22:15:00,72.1,65.7,30.12,ENE,76,0.0,1.0,80,0.00,,,0.00,meteohub,2013-01-13 03:15:00,
2013-01-12 22:20:00,72.1,65.7,30.12,East,81,0.0,1.0,80,0.00,,,0.00,meteohub,2013-01-13 03:20:00,
2013-01-12 22:25:00,72.1,65.7,30.12,ENE,78,0.0,1.0,80,0.00,,,0.00,meteohub,2013-01-13 03:25:00,
2013-01-12 22:30:00,72.0,65.5,30.12,ENE,78,0.0,1.0,80,0.00,,,0.00,meteohub,2013-01-13 03:30:00,
2013-01-12 22:35:00,71.8,65.7,30.12,ENE,78,0.0,1.0,81,0.00,,,0.00,meteohub,2013-01-13 03:35:00,
2013-01-12 22:40:00,71.6,65.8,30.12,East,80,0.0,1.0,82,0.00,,,0.00,meteohub,2013-01-13 03:40:00,
2013-01-12 22:45:00,71.6,65.5,30.12,East,80,0.0,1.0,81,0.00,,,0.00,meteohub,2013-01-13 03:45:00,
2013-01-12 22:50:00,71.8,65.7,30.12,East,80,0.0,1.0,81,0.00,,,0.00,meteohub,2013-01-13 03:50:00,
2013-01-12 22:55:00,71.6,65.8,30.12,NNE,19,0.0,3.0,82,0.00,,,0.00,meteohub,2013-01-13 03:55:00,
2013-01-12 23:00:00,71.4,65.7,30.12,NNE,19,0.0,3.0,82,0.00,,,0.00,meteohub,2013-01-13 04:00:00,
2013-01-12 23:05:00,71.4,66.0,30.11,NNE,19,0.0,3.0,83,0.00,,,0.00,meteohub,2013-01-13 04:05:00,
2013-01-12 23:10:00,71.4,65.7,30.11,East,91,0.0,3.0,82,0.00,,,0.00,meteohub,2013-01-13 04:10:00,
2013-01-12 23:15:00,71.8,66.0,30.11,East,90,0.0,3.0,82,0.00,,,0.00,meteohub,2013-01-13 04:15:00,
2013-01-12 23:21:00,72.0,65.8,30.11,East,81,0.0,3.0,81,0.00,,,0.00,meteohub,2013-01-13 04:21:00,
2013-01-12 23:26:00,72.0,65.8,30.11,East,101,0.0,3.0,81,0.00,,,0.00,meteohub,2013-01-13 04:26:00,
2013-01-12 23:31:00,72.1,66.0,30.10,ENE,57,1.0,3.0,81,0.00,,,0.00,meteohub,2013-01-13 04:31:00,
2013-01-12 23:36:00,72.3,66.2,30.11,ENE,59,0.0,6.0,81,0.00,,,0.00,meteohub,2013-01-13 04:36:00,
2013-01-12 23:41:00,72.3,65.5,30.11,East,80,0.0,6.0,79,0.00,,,0.00,meteohub,2013-01-13 04:41:00,
2013-01-12 23:46:00,72.7,66.2,30.11,ENE,65,1.0,6.0,80,0.00,,,0.00,meteohub,2013-01-13 04:46:00,
2013-01-12 23:51:00,72.9,66.7,30.11,ENE,57,0.0,5.0,81,0.00,,,0.00,meteohub,2013-01-13 04:51:00,
2013-01-12 23:56:00,73.0,66.9,30.11,ENE,63,0.0,6.0,81,0.00,,,0.00,meteohub,2013-01-13 04:56:00,